| time (UTC) | temp F | wind direction | speed MPH | gust MPH | rain 1hr in | rain 24hr in | rain mn in | humidity % | barometer mb |
| 20260905041510 | 55 | 116 | 0.0 | 0.0 | 0.00 | 0.27 | 0.26 | 91 | 1015.7 |
| 20260905040008 | 55 | 116 | 0.0 | 0.0 | 0.00 | 0.28 | 0.26 | 91 | 1015.5 |
| 20260905034506 | 55 | 116 | 0.0 | 0.0 | 0.00 | 0.28 | 0.26 | 91 | 1015.4 |
| 20260905033005 | 55 | 116 | 0.0 | 0.0 | 0.00 | 0.28 | 0.26 | 91 | 1015.2 |
| 20260905031506 | 55 | 122 | 0.0 | 1.0 | 0.01 | 0.28 | 0.26 | 90 | 1015.0 |
| 20260905030003 | 55 | 131 | 0.0 | 0.0 | 0.01 | 0.34 | 0.26 | 90 | 1014.9 |
| 20260905024502 | 55 | 89 | 0.0 | 5.0 | 0.01 | 0.34 | 0.26 | 90 | 1014.8 |
| 20260905023003 | 55 | 95 | 1.0 | 5.0 | 0.01 | 0.34 | 0.26 | 89 | 1014.9 |
| 20260905021502 | 56 | 100 | 1.0 | 9.0 | 0.01 | 0.33 | 0.25 | 88 | 1015.0 |
| 20260905020004 | 56 | 105 | 1.0 | 5.0 | 0.01 | 0.33 | 0.25 | 87 | 1015.0 |
| 20260905014601 | 57 | 84 | 2.0 | 9.0 | 0.01 | 0.33 | 0.25 | 84 | 1014.9 |
| 20260905013059 | 59 | 109 | 2.0 | 12.0 | 0.01 | 0.33 | 0.25 | 81 | 1014.8 |
| 20260905011601 | 61 | 91 | 5.0 | 10.0 | 0.00 | 0.32 | 0.24 | 79 | 1014.7 |
| 20260905010104 | 62 | 101 | 1.0 | 6.0 | 0.00 | 0.32 | 0.24 | 75 | 1014.6 |
| 20260905004555 | 63 | 145 | 0.0 | 2.0 | 0.00 | 0.38 | 0.24 | 75 | 1014.5 |
| 20260905003052 | 63 | 199 | 1.0 | 5.0 | 0.00 | 0.38 | 0.24 | 75 | 1014.3 |
| 20260905001602 | 62 | 235 | 0.0 | 1.0 | 0.00 | 0.38 | 0.24 | 77 | 1014.3 |
| 20260905000109 | 62 | 198 | 0.0 | 3.0 | 0.00 | 0.38 | 0.24 | 77 | 1014.2 |
| 20260904234550 | 63 | 207 | 0.0 | 1.0 | 0.00 | 0.42 | 0.24 | 77 | 1014.1 |
| 20260904233102 | 63 | 171 | 0.0 | 2.0 | 0.00 | 0.42 | 0.24 | 78 | 1013.9 |
| 20260904231553 | 63 | 213 | 3.0 | 8.0 | 0.00 | 0.42 | 0.24 | 79 | 1013.8 |
| 20260904230047 | 62 | 231 | 0.0 | 4.0 | 0.00 | 0.42 | 0.24 | 84 | 1013.7 |
| 20260904224548 | 61 | 86 | 0.0 | 0.0 | 0.00 | 0.48 | 0.24 | 91 | 1013.7 |
| 20260904223046 | 60 | 204 | 0.0 | 2.0 | 0.00 | 0.48 | 0.24 | 93 | 1013.8 |
| 20260904221536 | 58 | 102 | 0.0 | 5.0 | 0.02 | 0.48 | 0.24 | 93 | 1013.8 |
| 20260904220033 | 58 | 152 | 0.0 | 0.0 | 0.03 | 0.48 | 0.24 | 93 | 1013.9 |
| 20260904214533 | 57 | 152 | 0.0 | 1.0 | 0.05 | 0.56 | 0.24 | 92 | 1013.7 |
| 20260904213032 | 58 | 152 | 0.0 | 0.0 | 0.04 | 0.55 | 0.23 | 91 | 1013.6 |
| 20260904211536 | 57 | 185 | 0.0 | 0.0 | 0.03 | 0.54 | 0.22 | 90 | 1013.7 |
| 20260904210038 | 58 | 212 | 0.0 | 1.0 | 0.02 | 0.53 | 0.21 | 87 | 1013.6 |
| 20260904204531 | 61 | 203 | 0.0 | 12.0 | 0.00 | 0.51 | 0.19 | 81 | 1013.7 |
| 20260904203027 | 62 | 224 | 0.0 | 1.0 | 0.00 | 0.51 | 0.19 | 84 | 1013.3 |
| 20260904201523 | 60 | 108 | 0.0 | 4.0 | 0.00 | 0.51 | 0.19 | 85 | 1013.2 |
| 20260904200020 | 60 | 78 | 0.0 | 6.0 | 0.00 | 0.51 | 0.19 | 89 | 1013.2 |
| 20260904194517 | 59 | 162 | 0.0 | 4.0 | 0.01 | 0.51 | 0.19 | 91 | 1013.3 |
| 20260904193014 | 58 | 87 | 0.0 | 0.0 | 0.01 | 0.51 | 0.19 | 93 | 1013.5 |
| 20260904191512 | 58 | 89 | 0.0 | 4.0 | 0.01 | 0.51 | 0.19 | 94 | 1013.5 |
| 20260904190007 | 57 | 110 | 0.0 | 4.0 | 0.01 | 0.53 | 0.19 | 95 | 1013.5 |
| 20260904184506 | 56 | 90 | 0.0 | 5.0 | 0.00 | 0.52 | 0.18 | 95 | 1013.5 |
| 20260904183007 | 57 | 77 | 0.0 | 0.0 | 0.00 | 0.52 | 0.18 | 96 | 1013.4 |
| 20260904181502 | 57 | 88 | 0.0 | 0.0 | 0.00 | 0.52 | 0.18 | 96 | 1013.3 |
| 20260904180105 | 56 | 355 | 0.0 | 0.0 | 0.00 | 0.52 | 0.18 | 96 | 1013.2 |
| 20260904174559 | 56 | 355 | 0.0 | 0.0 | 0.00 | 0.56 | 0.18 | 96 | 1013.2 |
| 20260904173104 | 56 | 355 | 0.0 | 0.0 | 0.00 | 0.56 | 0.18 | 96 | 1013.0 |
| 20260904171556 | 56 | 354 | 0.0 | 0.0 | 0.00 | 0.56 | 0.18 | 96 | 1012.8 |
| 20260904170053 | 55 | 359 | 0.0 | 0.0 | 0.00 | 0.56 | 0.18 | 96 | 1012.8 |
| 20260904164553 | 55 | 359 | 0.0 | 0.0 | 0.00 | 0.56 | 0.18 | 96 | 1012.7 |
| 20260904163052 | 55 | 359 | 0.0 | 0.0 | 0.00 | 0.56 | 0.18 | 96 | 1012.6 |
| 20260904161559 | 55 | 345 | 0.0 | 0.0 | 0.00 | 0.56 | 0.18 | 97 | 1012.6 |
| 20260904160057 | 54 | 321 | 0.0 | 0.0 | 0.00 | 0.56 | 0.18 | 96 | 1012.5 |
| 20260904154547 | 54 | 359 | 0.0 | 3.0 | 0.00 | 0.56 | 0.18 | 96 | 1012.7 |
| 20260904153148 | 54 | 355 | 0.0 | 3.0 | 0.01 | 0.56 | 0.18 | 96 | 1012.4 |
| 20260904151549 | 54 | 2 | 0.0 | 0.0 | 0.02 | 0.56 | 0.18 | 96 | 1012.4 |
| 20260904150042 | 53 | 2 | 0.0 | 0.0 | 0.02 | 0.56 | 0.18 | 96 | 1012.2 |
| 20260904144556 | 53 | 2 | 0.0 | 0.0 | 0.03 | 0.56 | 0.18 | 96 | 1012.1 |
| 20260904143054 | 53 | 126 | 0.0 | 0.0 | 0.02 | 0.55 | 0.17 | 96 | 1012.1 |
| 20260904141537 | 53 | 126 | 0.0 | 0.0 | 0.01 | 0.54 | 0.16 | 96 | 1011.8 |
| 20260904140038 | 53 | 126 | 0.0 | 0.0 | 0.01 | 0.54 | 0.16 | 96 | 1011.7 |
| 20260904134534 | 53 | 126 | 0.0 | 0.0 | 0.00 | 0.62 | 0.15 | 96 | 1011.4 |
| 20260904133035 | 52 | 126 | 0.0 | 0.0 | 0.00 | 0.62 | 0.15 | 96 | 1011.2 |
| 20260904131530 | 52 | 126 | 0.0 | 0.0 | 0.00 | 0.62 | 0.15 | 96 | 1011.1 |
| 20260904130029 | 52 | 126 | 0.0 | 0.0 | 0.00 | 0.62 | 0.15 | 96 | 1011.0 |
| 20260904124529 | 52 | 126 | 0.0 | 0.0 | 0.00 | 0.62 | 0.15 | 96 | 1010.9 |
| 20260904123028 | 52 | 126 | 0.0 | 0.0 | 0.00 | 0.62 | 0.15 | 95 | 1011.0 |
| 20260904121527 | 52 | 126 | 0.0 | 0.0 | 0.00 | 0.62 | 0.15 | 95 | 1010.9 |
| 20260904120024 | 52 | 126 | 0.0 | 0.0 | 0.00 | 0.62 | 0.15 | 95 | 1010.7 |
| 20260904114523 | 52 | 122 | 0.0 | 0.0 | 0.00 | 0.63 | 0.15 | 95 | 1010.5 |
| 20260904113023 | 52 | 109 | 0.0 | 0.0 | 0.00 | 0.63 | 0.15 | 95 | 1010.5 |
| 20260904111522 | 52 | 97 | 0.0 | 0.0 | 0.01 | 0.63 | 0.15 | 95 | 1010.4 |
| 20260904110021 | 52 | 84 | 0.0 | 0.0 | 0.02 | 0.63 | 0.15 | 95 | 1010.3 |
| 20260904104521 | 52 | 84 | 0.0 | 0.0 | 0.03 | 0.63 | 0.15 | 95 | 1010.2 |
| 20260904103024 | 52 | 84 | 0.0 | 0.0 | 0.04 | 0.63 | 0.15 | 95 | 1010.2 |
| 20260904101520 | 52 | 122 | 0.0 | 0.0 | 0.04 | 0.62 | 0.14 | 95 | 1010.1 |
| 20260904100019 | 52 | 113 | 0.0 | 1.0 | 0.03 | 0.61 | 0.13 | 95 | 1010.2 |
| 20260904094521 | 52 | 106 | 0.0 | 0.0 | 0.03 | 0.60 | 0.12 | 95 | 1010.3 |
| 20260904093018 | 52 | 121 | 1.0 | 4.0 | 0.05 | 0.59 | 0.11 | 95 | 1010.3 |
| 20260904091530 | 52 | 127 | 2.0 | 5.0 | 0.06 | 0.57 | 0.10 | 95 | 1010.2 |
| 20260904090016 | 52 | 123 | 2.0 | 6.0 | 0.08 | 0.57 | 0.10 | 95 | 1010.4 |
| 20260904084516 | 52 | 101 | 2.0 | 4.0 | 0.09 | 0.56 | 0.09 | 95 | 1010.4 |
| 20260904083025 | 52 | 89 | 0.0 | 3.0 | 0.06 | 0.54 | 0.06 | 95 | 1010.3 |
| 20260904081513 | 52 | 77 | 0.0 | 4.0 | 0.04 | 0.52 | 0.04 | 95 | 1010.1 |
| 20260904080012 | 52 | 123 | 0.0 | 0.0 | 0.02 | 0.50 | 0.02 | 95 | 1010.3 |
| 20260904074513 | 52 | 123 | 0.0 | 1.0 | 0.01 | 0.48 | 0.00 | 95 | 1010.4 |
| 20260904073011 | 52 | 123 | 0.0 | 2.0 | 0.01 | 0.48 | 0.00 | 95 | 1010.3 |
| 20260904071509 | 52 | 123 | 0.0 | 0.0 | 0.01 | 0.48 | 0.00 | 95 | 1010.2 |
| 20260904070007 | 52 | 123 | 0.0 | 0.0 | 0.01 | 0.48 | 0.48 | 95 | 1010.1 |
| 20260904064507 | 52 | 123 | 0.0 | 0.0 | 0.00 | 0.47 | 0.47 | 95 | 1010.1 |
| 20260904063015 | 52 | 123 | 0.0 | 0.0 | 0.00 | 0.47 | 0.47 | 95 | 1010.0 |
| 20260904061508 | 52 | 123 | 0.0 | 1.0 | 0.00 | 0.47 | 0.47 | 94 | 1010.0 |
| 20260904060005 | 52 | 123 | 0.0 | 6.0 | 0.00 | 0.47 | 0.47 | 95 | 1010.1 |
| 20260904054505 | 52 | 87 | 0.0 | 0.0 | 0.00 | 0.47 | 0.47 | 95 | 1010.1 |
| 20260904053005 | 53 | 101 | 0.0 | 0.0 | 0.00 | 0.47 | 0.47 | 94 | 1010.1 |
| 20260904051503 | 53 | 90 | 0.0 | 0.0 | 0.00 | 0.47 | 0.47 | 95 | 1010.2 |
| 20260904050002 | 53 | 110 | 1.0 | 4.0 | 0.00 | 0.47 | 0.47 | 95 | 1010.3 |
| 20260904044502 | 53 | 113 | 0.0 | 0.0 | 0.00 | 0.47 | 0.47 | 94 | 1010.2 |
| 20260904043001 | 53 | 146 | 0.0 | 4.0 | 0.00 | 0.47 | 0.47 | 94 | 1010.2 |